SCP
2 2 2 2 2 2 2 1 1 1 1 1 1 0 0 0 0 0 0 0 0 0 0 0 0 0 0 0 0 0 0 0 0 0 0 0 0 0 0 0 0 0 0
2 2 2 2 2 2 2 1 1 1 1 1 1 1 0 0 0 0 0 0 0 0 0 0 0 0 0 0 0 0 0 0 0 0 0 0 0 0 0 0 0 0 0
2 2 2 2 2 2 2 2 1 1 1 1 1 1 1 1 0 0 0 0 0 0 0 0 0 0 0 0 0 0 0 0 0 0 0 0 0 0 0 0 0 0 0
2 2 2 2 2 2 2 2 2 2 1 1 1 1 1 1 1 0 0 0 0 0 0 0 0 0 0 0 0 0 0 0 0 0 0 0 0 0 0 0 0 0 0
1 2 2 2 2 2 2 2 2 2 2 2 1 1 1 1 1 0 0 0 1 1 0 1 1 1 0 0 0 0 0 0 0 0 0 0 0 0 0 0 0 0 0
1 1 2 2 2 2 3 3 2 2 2 2 2 1 1 1 1 1 0 0 1 1 1 1 1 1 1 1 1 1 0 0 0 0 0 0 0 0 0 0 0 0 0
1 1 2 2 2 2 2 2 2 2 2 2 2 2 1 1 1 1 1 1 1 1 1 1 1 1 1 1 1 1 1 1 1 0 0 0 1 1 1 0 0 0 0
1 1 2 2 2 2 2 2 2 2 2 2 2 2 2 1 1 1 1 1 1 1 1 1 1 1 1 1 1 1 1 1 1 1 0 1 1 1 1 1 0 0 0
1 1 2 2 2 3 2 2 2 2 2 2 2 2 2 2 2 1 1 1 1 1 1 1 1 1 1 1 1 1 1 1 1 1 0 1 1 1 1 1 1 1 0
1 1 1 1 2 2 2 2 2 2 2 2 2 2 2 2 2 2 2 1 1 1 1 1 1 1 1 1 1 1 1 1 1 1 1 1 1 1 1 1 1 1 1
1 1 1 1 1 2 2 2 1 2 2 2 2 2 3 2 2 2 2 2 1 1 2 1 1 1 1 1 1 1 1 1 1 1 1 1 1 1 1 1 1 1 1
1 1 1 1 1 1 1 1 1 1 2 2 2 3 3 3 2 2 2 2 1 1 2 2 2 2 2 1 1 1 0 0 1 1 1 1 1 1 1 1 1 1 1
1 1 1 1 1 1 1 1 1 1 2 2 2 3 3 3 2 2 2 2 1 1 2 2 2 2 2 1 1 1 0 0 0 1 1 1 1 1 1 1 1 1 1
0 0 0 0 0 1 1 1 1 1 1 2 2 2 3 2 2 2 2 2 2 1 1 1 1 2 2 2 1 1 1 0 0 0 1 1 1 1 1 1 1 1 1
0 0 0 0 0 1 1 1 1 1 1 1 2 2 2 2 2 2 2 2 2 1 1 1 1 1 2 2 1 1 1 1 0 0 0 0 0 1 1 1 1 1 1
0 0 0 0 1 1 1 1 1 1 1 1 2 2 2 2 2 2 2 2 2 1 1 1 1 1 1 1 1 1 1 1 0 0 0 0 0 0 0 0 1 0 0
0 0 0 0 1 1 1 1 1 1 1 1 1 2 2 2 2 2 2 2 2 1 1 1 2 1 1 1 1 1 1 1 1 0 0 0 0 0 0 0 0 0 0
0 0 0 0 1 1 1 1 1 1 1 1 1 1 2 2 2 2 2 2 1 1 1 1 1 1 1 1 1 1 1 1 1 0 0 0 0 0 0 0 0 0 0
0 0 0 0 0 0 0 0 1 1 1 1 1 1 2 2 2 2 2 2 2 1 1 1 1 1 1 1 1 1 1 1 1 0 0 0 0 0 0 0 0 0 0
0 0 0 0 0 0 0 0 0 1 1 1 1 1 1 1 1 1 1 1 1 1 1 1 1 1 1 1 1 1 1 1 1 0 0 0 0 0 0 0 0 0 0
0 0 0 0 0 0 0 0 0 1 1 1 1 1 1 1 1 1 1 1 1 1 1 1 1 1 1 1 1 1 1 1 1 1 1 1 1 0 0 0 0 0 0
0 0 0 0 0 0 0 0 0 0 1 1 1 1 1 1 1 1 1 1 1 1 1 1 1 1 1 1 1 1 1 0 0 0 1 1 1 1 0 0 0 0 0
0 0 0 0 0 0 0 0 0 0 1 1 1 1 1 1 1 1 1 1 1 1 1 1 1 1 1 1 1 1 1 0 0 0 0 0 0 0 0 0 0 0 0
0 0 0 0 0 0 0 0 0 1 1 1 1 1 1 1 1 1 1 1 1 1 1 1 1 1 1 1 1 1 1 0 0 0 0 0 0 0 0 0 0 0 0
0 0 0 0 0 0 0 0 0 0 1 1 1 1 1 0 0 0 1 1 1 1 0 0 1 1 1 1 1 1 1 0 0 0 0 0 0 0 0 0 0 0 0
0 0 0 0 0 0 0 0 0 0 0 0 0 0 0 0 0 0 0 1 1 1 0 0 0 1 1 1 1 0 0 0 0 0 0 0 0 0 0 0 0 0 0
Wind_Speed
6 6 4 4 6 5 6 6 7 7 7 8 7 8 7 7 6 6 4 7 5 5 5 5 6 6 6 6 7 7 7 7 7 8 8 9 9 9 9 8 8 7 7
6 5 5 5 5 5 5 6 7 6 6 6 8 8 7 7 7 6 5 7 7 6 6 6 6 6 7 7 7 7 7 8 7 8 9 9 9 8 8 8 8 7 7
7 6 6 6 5 5 6 6 7 5 6 6 8 8 7 7 6 7 6 5 7 9 7 7 7 7 7 8 8 8 8 8 8 8 9 9 9 9 8 7 7 7 6
8 7 6 6 6 5 5 5 5 5 6 6 6 6 6 6 8 7 6 7 6 6 9 8 7 7 8 8 8 8 8 8 8 8 9 9 9 9 8 7 7 6 5
8 7 6 6 6 5 5 6 6 5 5 5 5 5 6 6 6 6 8 8 7 6 6 10 8 7 7 8 9 9 9 8 8 9 9 9 8 8 8 8 7 6 5
7 7 6 7 6 5 5 5 6 5 5 4 5 5 4 5 5 6 7 6 6 8 7 8 8 8 8 7 8 9 9 9 9 9 9 9 9 8 8 8 7 6 5
7 7 6 6 6 6 6 7 6 6 5 4 4 4 5 6 6 5 5 6 7 6 7 8 6 6 8 9 8 9 9 9 9 9 9 9 9 8 8 8 7 7 6
6 6 7 5 6 5 7 7 7 5 4 5 4 3 4 4 5 6 5 5 6 6 7 8 8 7 6 7 8 9 8 9 10 10 9 9 9 8 8 7 7 6 6
6 6 7 6 5 6 6 7 7 8 6 6 5 4 4 5 4 4 6 6 6 5 6 7 7 8 8 6 8 11 8 7 9 10 10 9 9 9 8 7 7 6 5
5 5 6 6 6 5 6 6 7 6 7 6 5 5 4 2 3 4 4 5 6 6 6 6 7 7 7 6 5 8 10 8 8 10 10 10 10 9 9 8 7 7 6
5 5 5 5 5 5 6 6 6 7 6 7 6 5 5 4 4 3 4 5 4 5 5 6 6 6 6 6 5 8 10 9 8 9 9 10 10 10 9 9 8 7 6
4 5 4 5 5 5 5 6 6 7 7 7 6 6 5 5 5 4 4 4 5 4 5 4 5 5 5 5 6 10 10 9 9 8 7 8 9 10 10 9 9 8 7
4 5 5 5 4 5 5 5 6 6 7 7 7 6 6 6 4 3 3 3 4 3 4 4 5 5 5 5 6 10 10 9 9 8 8 7 7 8 9 9 9 8 7
5 6 5 4 5 5 5 5 5 6 6 7 8 7 6 6 5 5 4 4 4 4 4 5 4 5 5 6 6 10 9 11 9 9 9 8 8 7 7 7 7 7 6
6 6 5 5 4 4 4 4 4 5 5 6 7 8 6 5 5 5 5 5 5 5 5 5 4 5 5 5 7 8 8 11 11 10 9 9 9 8 8 7 6 5 5
7 6 6 5 4 3 3 4 4 4 5 5 5 7 7 6 5 6 6 6 6 5 4 4 4 4 5 5 6 7 6 11 11 10 10 9 9 9 9 8 7 6 5
7 6 6 5 5 4 3 3 4 4 5 5 6 6 7 7 5 5 6 6 6 5 5 3 2 3 5 6 6 5 6 6 7 11 10 10 10 9 9 8 7 7 6
7 6 6 5 5 4 3 3 3 3 3 5 5 6 6 5 7 5 5 6 5 6 5 5 4 4 4 5 6 5 4 4 4 9 10 10 10 9 9 8 7 7 6
8 7 6 5 5 5 4 3 2 3 3 3 4 5 5 5 6 5 5 5 5 5 5 5 4 3 3 4 5 5 5 4 4 7 9 9 9 9 9 8 8 7 7
8 7 6 6 5 5 4 4 3 2 2 2 3 3 4 4 5 5 5 6 5 6 6 6 5 5 4 5 5 5 5 4 4 4 5 6 8 9 8 8 8 8 7
7 7 6 6 6 5 5 6 4 2 1 2 2 3 2 2 2 3 3 5 6 6 6 6 6 5 6 6 6 5 5 5 4 3 4 4 5 4 5 7 8 8 7
8 8 7 7 6 5 8 8 6 2 1 1 1 1 2 3 4 4 2 2 3 5 7 6 6 7 8 7 6 6 6 6 4 3 4 3 3 3 3 4 6 7 8
7 7 7 7 7 7 8 8 7 4 2 1 1 0 0 1 3 4 5 5 3 3 4 5 6 7 8 9 9 9 7 6 4 5 4 3 3 3 3 5 8 8 8
6 6 7 7 7 8 9 8 7 4 3 3 2 1 1 0 1 1 3 3 2 2 3 5 5 6 6 7 8 7 7 6 6 4 3 3 3 3 3 4 7 7 8
6 6 6 6 6 6 9 9 8 3 3 3 3 3 2 1 2 0 3 4 4 3 3 4 4 4 6 7 7 7 7 7 5 3 2 3 4 3 3 3 5 8 8
5 5 5 5 6 6 8 9 9 3 3 3 3 3 4 3 2 1 3 4 4 4 4 5 5 7 7 8 8 7 7 7 5 4 4 4 5 4 3 2 2 4 5
Wind_Direction
263 256 253 247 247 246 237 236 240 235 233 236 236 239 232 222 225 218 161 159 196 210 200 190 187 185 182 176 169 163 161 156 152 152 151 145 141 139 137 136 136 136 132
258 256 253 252 248 246 249 240 237 234 232 232 234 232 239 229 227 216 208 171 185 202 203 196 189 184 183 180 172 167 166 164 157 154 153 150 147 145 144 144 143 140 135
265 257 252 251 247 238 240 244 243 237 232 227 227 228 227 233 231 220 209 208 184 184 194 198 193 188 188 183 177 173 171 170 167 162 158 155 153 151 150 149 148 146 145
271 265 256 250 244 237 232 232 237 231 227 227 226 218 222 217 232 226 216 207 205 189 180 183 187 188 189 186 183 179 176 176 173 170 165 160 159 158 156 155 152 150 146
279 269 262 259 250 238 233 233 225 221 225 223 227 223 227 221 227 228 227 220 199 200 186 160 178 184 189 190 186 181 180 178 174 172 169 167 165 163 162 161 160 160 160
285 277 265 256 252 242 235 232 227 218 223 217 227 222 221 227 226 232 236 228 215 202 197 177 179 180 184 189 188 184 182 182 179 178 177 175 172 171 174 174 173 173 176
286 278 273 263 250 244 239 232 230 221 217 208 208 217 219 224 223 220 232 227 218 205 200 193 194 182 175 182 188 189 187 186 185 184 182 178 176 177 179 181 183 185 186
293 282 272 267 253 248 241 233 225 218 215 203 196 194 207 209 217 211 213 222 222 201 211 205 196 188 190 175 168 181 188 189 189 188 185 181 179 179 182 185 189 190 188
299 289 279 270 262 256 246 236 226 220 215 209 206 196 199 210 184 198 210 212 218 208 208 214 209 195 190 184 167 174 180 186 192 192 190 187 185 184 186 192 193 189 189
307 294 282 271 261 256 253 245 234 230 222 213 208 218 227 213 182 180 199 208 211 210 213 209 214 207 195 187 169 155 170 181 189 194 195 192 190 190 191 195 194 192 190
315 303 289 274 263 256 252 250 246 237 230 224 211 203 208 216 221 194 186 188 201 211 215 214 208 212 201 191 183 164 165 179 187 195 197 195 192 192 193 194 191 190 192
318 321 307 286 270 261 254 249 246 239 234 228 222 212 201 196 201 199 193 188 193 199 206 207 215 205 200 194 186 149 165 178 184 188 193 195 194 194 196 194 192 194 198
323 325 316 301 288 274 264 255 249 243 234 228 224 220 218 217 202 199 204 196 192 184 190 204 209 207 202 200 177 157 169 175 179 182 186 187 187 190 193 193 191 192 193
315 313 310 303 294 282 269 256 249 241 233 230 227 222 220 219 207 202 205 201 193 194 197 198 193 200 202 202 177 174 178 178 180 180 184 184 180 178 177 179 180 181 184
319 321 315 306 295 284 272 260 250 243 237 229 228 224 221 217 208 208 208 209 203 202 204 195 187 195 198 201 166 191 193 174 180 179 178 176 173 171 167 167 167 169 175
332 326 322 319 309 295 274 262 259 244 237 231 228 227 224 220 210 210 211 214 217 217 210 184 186 179 187 192 182 197 191 162 174 175 174 170 167 167 166 163 161 161 160
339 334 330 326 324 315 289 263 257 245 239 234 227 223 222 220 216 211 209 210 211 211 213 187 167 163 177 182 171 182 177 175 169 168 170 170 168 164 160 157 155 156 154
345 342 339 335 334 326 308 279 265 250 233 235 231 225 222 213 213 212 207 207 206 205 202 187 174 173 182 177 166 163 161 162 158 152 159 161 161 159 156 155 153 153 152
349 348 346 345 341 334 326 308 287 257 228 231 232 228 224 217 210 204 204 201 199 199 198 190 177 172 172 171 162 153 145 134 133 140 148 149 150 151 151 152 150 147 144
350 349 353 352 349 346 344 337 317 281 243 235 235 231 221 218 218 212 206 203 200 200 197 189 180 175 170 168 170 162 150 140 135 135 134 133 137 140 143 147 150 149 146
354 358 1 360 2 358 3 348 329 312 265 231 221 219 208 210 228 237 227 208 199 199 195 189 182 178 175 173 174 166 155 142 132 140 139 139 142 145 148 146 144 142 142
359 4 4 3 6 15 13 359 339 332 314 262 227 205 183 188 184 189 201 226 223 209 198 190 188 186 186 179 167 163 159 157 150 154 144 128 132 133 132 124 125 132 137
6 4 5 4 6 20 16 7 360 347 8 6 348 249 190 158 193 183 168 186 197 215 225 215 198 194 189 181 172 171 174 168 145 147 139 121 118 110 101 104 124 134 137
5 1 3 5 7 19 18 11 356 1 29 28 23 24 9 62 124 184 175 174 169 178 214 222 210 199 190 177 177 170 155 131 109 119 136 126 130 114 103 103 110 122 130
358 1 3 1 5 16 19 8 351 17 33 34 36 32 19 42 72 65 192 168 157 138 97 77 72 117 127 142 151 147 147 148 140 139 143 131 136 125 111 99 106 112 120
350 352 3 359 5 15 24 9 353 13 23 31 42 52 54 35 31 307 206 169 154 142 139 131 123 129 135 136 149 165 162 161 149 147 160 144 148 149 136 125 127 138 130